| time (UTC) | temp F | wind direction | speed knots | gust knots | rain 1hr in | rain 24hr in | rain mn in | humidity % | barometer mb |
| 20260502201533 | 61 | 360 | 5.2 | 13.0 | 0.00 | 0.00 | 0.00 | 42 | 1018.8 |
| 20260502200034 | 60 | 50 | 6.1 | 13.0 | 0.00 | 0.00 | 0.00 | 44 | 1019.1 |
| 20260502194536 | 60 | 42 | 7.8 | 14.8 | 0.00 | 0.00 | 0.00 | 45 | 1019.4 |
| 20260502193039 | 60 | 31 | 7.8 | 16.5 | 0.00 | 0.00 | 0.00 | 45 | 1019.4 |
| 20260502191532 | 60 | 340 | 8.7 | 14.8 | 0.00 | 0.00 | 0.00 | 45 | 1019.5 |
| 20260502190042 | 59 | 5 | 10.4 | 17.4 | 0.00 | 0.00 | 0.00 | 45 | 1019.7 |
| 20260502184530 | 60 | 37 | 9.6 | 16.5 | 0.00 | 0.00 | 0.00 | 44 | 1019.6 |
| 20260502183030 | 59 | 30 | 7.0 | 13.9 | 0.00 | 0.00 | 0.00 | 46 | 1019.8 |
| 20260502181537 | 59 | 5 | 8.7 | 15.6 | 0.00 | 0.00 | 0.00 | 46 | 1019.8 |
| 20260502163038 | 59 | 34 | 13.0 | 19.1 | 0.00 | 0.00 | 0.00 | 45 | 1019.9 |
| 20260502161531 | 59 | 38 | 13.9 | 21.7 | 0.00 | 0.00 | 0.00 | 46 | 1020.0 |
| 20260502151555 | 58 | 45 | 12.2 | 18.2 | 0.00 | 0.00 | 0.00 | 46 | 1019.5 |
| 20260502123035 | 45 | 33 | 10.4 | 13.0 | 0.00 | 0.00 | 0.00 | 62 | 1018.6 |
| 20260502121533 | 44 | 30 | 10.4 | 13.0 | 0.00 | 0.00 | 0.00 | 63 | 1018.5 |
| 20260502114531 | 44 | 15 | 10.4 | 14.8 | 0.00 | 0.00 | 0.00 | 62 | 1018.2 |
| 20260502113040 | 45 | 9 | 10.4 | 16.5 | 0.00 | 0.00 | 0.00 | 58 | 1018.0 |
| 20260502111528 | 47 | 17 | 13.9 | 18.2 | 0.00 | 0.00 | 0.00 | 58 | 1017.6 |
| 20260502110035 | 46 | 25 | 10.4 | 14.8 | 0.00 | 0.00 | 0.00 | 56 | 1017.4 |
| 20260502104531 | 48 | 16 | 11.3 | 15.6 | 0.00 | 0.00 | 0.00 | 53 | 1017.3 |
| 20260502103030 | 49 | 43 | 10.4 | 15.6 | 0.00 | 0.00 | 0.00 | 51 | 1016.9 |
| 20260502101530 | 49 | 51 | 12.2 | 18.2 | 0.00 | 0.00 | 0.00 | 51 | 1016.6 |
| 20260502091530 | 49 | 17 | 8.7 | 11.3 | 0.00 | 0.00 | 0.00 | 48 | 1016.2 |
| 20260502071531 | 53 | 348 | 6.1 | 8.7 | 0.00 | 0.00 | 0.00 | 37 | 1015.4 |
| 20260502070044 | 50 | 360 | 4.3 | 7.8 | 0.00 | 0.00 | 0.00 | 40 | 1015.5 |
| 20260502064530 | 51 | 342 | 5.2 | 8.7 | 0.00 | 0.00 | 0.00 | 39 | 1015.5 |
| 20260502063040 | 52 | 5 | 7.0 | 9.6 | 0.00 | 0.00 | 0.00 | 37 | 1015.4 |
| 20260502061532 | 52 | 5 | 7.8 | 10.4 | 0.00 | 0.00 | 0.00 | 37 | 1015.3 |
| 20260502060031 | 52 | 26 | 7.0 | 8.7 | 0.00 | 0.00 | 0.00 | 37 | 1015.2 |
| 20260502054535 | 56 | 355 | 8.7 | 10.4 | 0.00 | 0.00 | 0.00 | 34 | 1015.3 |
| 20260502053031 | 56 | 346 | 7.8 | 10.4 | 0.00 | 0.00 | 0.00 | 34 | 1015.2 |
| 20260502051530 | 55 | 323 | 4.3 | 7.0 | 0.00 | 0.00 | 0.00 | 35 | 1015.2 |
| 20260502050037 | 51 | 346 | 3.5 | 7.0 | 0.00 | 0.00 | 0.00 | 36 | 1015.2 |
| 20260502044530 | 54 | 312 | 6.1 | 8.7 | 0.00 | 0.00 | 0.00 | 34 | 1015.1 |
| 20260502043031 | 53 | 302 | 3.5 | 7.0 | 0.00 | 0.00 | 0.00 | 34 | 1015.1 |
| 20260502041531 | 55 | 314 | 4.3 | 7.0 | 0.00 | 0.00 | 0.00 | 32 | 1015.1 |
| 20260502040030 | 58 | 315 | 3.5 | 8.7 | 0.00 | 0.00 | 0.00 | 28 | 1015.0 |
| 20260502034528 | 59 | 337 | 5.2 | 9.6 | 0.00 | 0.00 | 0.00 | 27 | 1015.0 |
| 20260502033031 | 60 | 309 | 6.1 | 9.6 | 0.00 | 0.00 | 0.00 | 26 | 1015.0 |
| 20260502031532 | 60 | 339 | 7.0 | 9.6 | 0.00 | 0.00 | 0.00 | 26 | 1014.8 |
| 20260502030031 | 64 | 298 | 4.3 | 7.8 | 0.00 | 0.00 | 0.00 | 21 | 1014.6 |
| 20260502024532 | 66 | 300 | 3.5 | 8.7 | 0.00 | 0.00 | 0.00 | 21 | 1014.3 |
| 20260502023030 | 69 | 319 | 4.3 | 10.4 | 0.00 | 0.00 | 0.00 | 20 | 1014.2 |
| 20260502021528 | 69 | 236 | 5.2 | 8.7 | 0.00 | 0.00 | 0.00 | 21 | 1014.2 |
| 20260502020032 | 69 | 337 | 0.0 | 2.6 | 0.00 | 0.00 | 0.00 | 23 | 1014.2 |
| 20260502014535 | 71 | 0 | 0.0 | 0.0 | 0.00 | 0.00 | 0.00 | 22 | 1014.2 |
| 20260502013029 | 72 | 0 | 0.9 | 3.5 | 0.00 | 0.00 | 0.00 | 21 | 1014.2 |
| 20260502011531 | 72 | 300 | 0.9 | 3.5 | 0.00 | 0.00 | 0.00 | 21 | 1014.3 |
| 20260502010033 | 72 | 294 | 1.7 | 7.8 | 0.00 | 0.00 | 0.00 | 20 | 1014.3 |
| 20260502004532 | 73 | 337 | 3.5 | 11.3 | 0.00 | 0.00 | 0.00 | 20 | 1014.5 |
| 20260502003030 | 73 | 17 | 1.7 | 5.2 | 0.00 | 0.00 | 0.00 | 20 | 1014.5 |
| 20260502001533 | 72 | 9 | 4.3 | 13.0 | 0.00 | 0.00 | 0.00 | 21 | 1014.7 |
| 20260502000055 | 72 | 321 | 3.5 | 11.3 | 0.00 | 0.00 | 0.00 | 20 | 1014.7 |
| 20260501234534 | 72 | 338 | 7.8 | 13.9 | 0.00 | 0.00 | 0.00 | 21 | 1014.8 |
| 20260501233028 | 72 | 318 | 10.4 | 18.2 | 0.00 | 0.00 | 0.00 | 21 | 1014.9 |
| 20260501231531 | 73 | 326 | 7.0 | 11.3 | 0.00 | 0.00 | 0.00 | 21 | 1014.9 |
| 20260501230033 | 72 | 277 | 10.4 | 18.2 | 0.00 | 0.00 | 0.00 | 21 | 1015.1 |
| 20260501224554 | 72 | 286 | 10.4 | 16.5 | 0.00 | 0.00 | 0.00 | 20 | 1015.3 |
| 20260501223029 | 72 | 296 | 3.5 | 10.4 | 0.00 | 0.00 | 0.00 | 21 | 1015.2 |
| 20260501221528 | 72 | 302 | 10.4 | 17.4 | 0.00 | 0.00 | 0.00 | 21 | 1015.4 |
| 20260501220034 | 72 | 288 | 14.8 | 20.0 | 0.00 | 0.00 | 0.00 | 22 | 1015.4 |
| 20260501214529 | 72 | 224 | 3.5 | 13.9 | 0.00 | 0.00 | 0.00 | 23 | 1015.5 |
| 20260501213029 | 72 | 266 | 8.7 | 15.6 | 0.00 | 0.00 | 0.00 | 23 | 1015.8 |
| 20260501211530 | 71 | 0 | 5.2 | 15.6 | 0.00 | 0.00 | 0.00 | 22 | 1016.0 |
| 20260501210030 | 71 | 301 | 5.2 | 13.0 | 0.00 | 0.00 | 0.00 | 22 | 1016.1 |
| 20260501204529 | 70 | 248 | 5.2 | 13.9 | 0.00 | 0.00 | 0.00 | 20 | 1016.3 |
| 20260501203032 | 70 | 277 | 5.2 | 12.2 | 0.00 | 0.00 | 0.00 | 20 | 1016.3 |